Regional Weather Roundup
Issued by NWS

Home | Current Version | Previous Version | Graphics & Text | Print | Product List | Glossary On
Versions: 1 2 3 4 5 6 7 8 9 10 11 12 13 14 15 16 17 18 19 20 21 22 23 24 25 26 27 28 29 30 31 32 33 34 35 36 37 38 39 40 41 42 43 44 45 46 47 48 49 50
000
ASUS44 KMEG 280210
RWRTN
TENNESSEE HOURLY STATE WEATHER ROUNDUP
NATIONAL WEATHER SERVICE MEMPHIS TN
900 PM CDT THU AUG 27 2015

TNZ002-004-019-021-049-052-054-088>092-280300-
WEST TENNESSEE

CITY           SKY/WX    TMP DP  RH WIND       PRES   REMARKS
MEMPHIS INTL   PTCLDY    75  58  55 E5        30.05S
NWS MEMPHIS      N/A     69 N/A N/A MISG        N/A
JACKSON        CLEAR     62  59  90 CALM      30.06S
DYERSBURG      CLEAR    N/A N/A N/A MISG        N/A
UNION CITY     CLEAR     64  63  94 CALM      30.07S
PARIS          CLEAR     63  57  82 CALM      30.09S
LEXINGTON      CLEAR     64  61  88 CALM      30.07R
$$

TNZ008-025-027-028-033-062-065-066-280300-
NORTH MIDDLE TENNESSEE

CITY           SKY/WX    TMP DP  RH WIND       PRES   REMARKS
NASHVILLE      CLEAR     72  55  55 NE6       30.10R
CLARKSVILLE    CLEAR     69  58  67 NE6       30.09R
SMYRNA         CLEAR     70  59  68 CALM      30.10R
COOKEVILLE     CLEAR     64  61  88 CALM      30.11R
CROSSVILLE     CLEAR     69  57  65 NE5       30.16R
$$

TNZ061-075-076-078-094-096-097-280300-
SOUTH MIDDLE TENNESSEE

CITY           SKY/WX    TMP DP  RH WIND       PRES   REMARKS
FAYETTEVILLE   CLEAR     68  61  77 CALM      30.08R
TULLAHOMA      CLEAR     72  61  68 NE5       30.10S
WINCHESTER     CLEAR     70  63  78 CALM      30.09R
MCMINNVILLE    CLEAR     68  63  83 NE5       30.11R
COLUMBIA       CLEAR     66  64  94 CALM      30.07R
SHELBYVILLE    CLEAR     66  63  88 CALM      30.10R
$$

TNZ017-018-042-046-047-280300-
NORTHEAST TENNESSEE

CITY           SKY/WX    TMP DP  RH WIND       PRES   REMARKS
TRI CITIES     MOCLDY    70  60  70 VRB3      30.14R
ELIZABETHTON   MOCLDY    64  61  88 CALM      30.15R
$$

TNZ012-013-036-069-073-074-280300-
CENTRAL EAST TENNESSEE

CITY           SKY/WX    TMP DP  RH WIND       PRES   REMARKS
KNOXVILLE      PTCLDY    73  60  63 N5        30.09R
OAK RIDGE      CLEAR     72  61  68 NE3       30.12R
GATLINBURG     CLOUDY    72  61  68 CALM      30.10R
MORRISTOWN     CLEAR     72  61  68 N3        30.13R
$$

TNZ083-085-099-280300-
SOUTHEAST TENNESSEE

CITY           SKY/WX    TMP DP  RH WIND       PRES   REMARKS
CHATTANOOGA    PTCLDY    74  64  71 CALM      30.07R
$$

SKY/WX REPORTED AS FAIR MEANS FEW OR NO CLOUDS BELOW
12 THOUSAND FEET.




USA.gov is the U.S. government's official web portal to all federal, state and local government web resources and services.